Satellite: AO-27
Catalog number: 22825
Epoch time:      06068.82143789
Element set:     347
Inclination:      098.2766 deg
RA of node:       055.5687 deg
Eccentricity:    0.0008070
Arg of perigee:   190.3841 deg
Mean anomaly:     169.7157 deg
Mean motion:   14.29165184 rev/day
Decay rate:       1.73e-06 rev/day^2
Epoch rev:           64916
Checksum:              343

Satellite: IO-26
Catalog number: 22826
Epoch time:      06068.52815318
Element set:      38
Inclination:      098.2691 deg
RA of node:       056.5250 deg
Eccentricity:    0.0008501
Arg of perigee:   189.2761 deg
Mean anomaly:     170.8268 deg
Mean motion:   14.29407137 rev/day
Decay rate:       -1.4e-07 rev/day^2
Epoch rev:           64919
Checksum:              314

Satellite: PO-28
Catalog number: 22829
Epoch time:      06067.66059314
Element set:    0322
Inclination:      098.2612 deg
RA of node:       056.9050 deg
Eccentricity:    0.0009819
Arg of perigee:   167.2370 deg
Mean anomaly:     192.9038 deg
Mean motion:   14.30096006 rev/day
Decay rate:       -8.7e-07 rev/day^2
Epoch rev:           64927
Checksum:              315

Satellite: TO-31
Catalog number: 25396
Epoch time:      06068.22572933
Element set:     475
Inclination:      098.4907 deg
RA of node:       132.0428 deg
Eccentricity:    0.0003280
Arg of perigee:   117.9439 deg
Mean anomaly:     242.2077 deg
Mean motion:   14.23697772 rev/day
Decay rate:       -7.0e-07 rev/day^2
Epoch rev:           39812
Checksum:              316

Satellite: GO-32
Catalog number: 25397
Epoch time:      06067.92885352
Element set:    0962
Inclination:      098.4824 deg
RA of node:       128.7256 deg
Eccentricity:    0.0001952
Arg of perigee:   122.1943 deg
Mean anomaly:     237.9409 deg
Mean motion:   14.23099259 rev/day
Decay rate:       -5.0e-08 rev/day^2
Epoch rev:           39798
Checksum:              346

Satellite: UO-36
Catalog number: 25693
Epoch time:      06067.86901839
Element set:     985
Inclination:      064.5574 deg
RA of node:       190.8254 deg
Eccentricity:    0.0006919
Arg of perigee:   334.0314 deg
Mean anomaly:     026.0440 deg
Mean motion:   14.78579979 rev/day
Decay rate:       -3.1e-07 rev/day^2
Epoch rev:           37095
Checksum:              344

Satellite: MO-46
Catalog number: 26548
Epoch time:      06068.30366012
Element set:     433
Inclination:      064.5566 deg
RA of node:       180.6680 deg
Eccentricity:    0.0051921
Arg of perigee:   261.2887 deg
Mean anomaly:     098.2359 deg
Mean motion:   14.82922748 rev/day
Decay rate:        6.8e-07 rev/day^2
Epoch rev:           29459
Checksum:              336

Satellite: NO-44
Catalog number: 26931
Epoch time:      06067.80500646
Element set:    0252
Inclination:      067.0508 deg
RA of node:       266.2387 deg
Eccentricity:    0.0006970
Arg of perigee:   269.4340 deg
Mean anomaly:     090.5925 deg
Mean motion:   14.29426880 rev/day
Decay rate:      -2.58e-06 rev/day^2
Epoch rev:           23158
Checksum:              315

Satellite: SO-50
Catalog number: 27607
Epoch time:      06067.62475413
Element set:     961
Inclination:      064.5580 deg
RA of node:       058.3360 deg
Eccentricity:    0.0054939
Arg of perigee:   179.1577 deg
Mean anomaly:     180.9625 deg
Mean motion:   14.71104651 rev/day
Decay rate:        6.7e-07 rev/day^2
Epoch rev:           17263
Checksum:              318

Satellite: AO-51
Catalog number: 28375
Epoch time:      06068.74892299
Element set:     478
Inclination:      098.1796 deg
RA of node:       125.2608 deg
Eccentricity:    0.0084040
Arg of perigee:   147.7880 deg
Mean anomaly:     212.8482 deg
Mean motion:   14.40507331 rev/day
Decay rate:        2.3e-07 rev/day^2
Epoch rev:            8884
Checksum:              334

Satellite: XO-53
Catalog number: 28894
Epoch time:      06068.62739445
Element set:     418
Inclination:      098.1766 deg
RA of node:       328.4660 deg
Eccentricity:    0.0018367
Arg of perigee:   121.1814 deg
Mean anomaly:     239.1190 deg
Mean motion:   14.59441502 rev/day
Decay rate:        5.6e-07 rev/day^2
Epoch rev:            1945
Checksum:              322

Satellite: CUTESAT
Catalog number: 28941
Epoch time:      06067.87928691
Element set:      19
Inclination:      098.1845 deg
RA of node:       077.6991 deg
Eccentricity:    0.0298745
Arg of perigee:   096.0329 deg
Mean anomaly:     267.5027 deg
Mean motion:   15.20279010 rev/day
Decay rate:     1.9104e-04 rev/day^2
Epoch rev:             228
Checksum:              331

/EX
SB KEPS @ AMSAT  $ORB06068.W
Orbital Elements  06068.WEATHER

HR AMSAT ORBITAL ELEMENTS FOR WEATHER SATELLITES
FROM WA5QGD FORT WORTH,TX March 9, 2006
Send SUBSCRIBE KEPS/UNSUBSCRIBE KEPS to majordomo@amsat.org only
BID: ORB06068.W
TO ALL RADIO AMATEURS BT

Satellite: NOAA-10
Catalog number: 16969
Epoch time:      06068.45879503
Element set:     121
Inclination:      098.7651 deg
RA of node:       079.8623 deg
Eccentricity:    0.0013381
Arg of perigee:   081.7793 deg
Mean anomaly:     278.4908 deg
Mean motion:   14.27287001 rev/day
Decay rate:       -2.6e-07 rev/day^2
Epoch rev:            1293
Checksum:              324

Satellite: NOAA-11
Catalog number: 19531
Epoch time:      06068.21949925
Element set:      27
Inclination:      098.8285 deg
RA of node:       157.7216 deg
Eccentricity:    0.0010806
Arg of perigee:   273.8844 deg
Mean anomaly:     086.1100 deg
Mean motion:   14.14794104 rev/day
Decay rate:       2.85e-06 rev/day^2
Epoch rev:           90040
Checksum:              300

